Location: Zilina
(49.2170°N, 18.7330°E)
Time: 12:40:09
(UTC+02:00)

ISS - Pass Details

Date: 27 March 2019
Orbit: 408 x 410 km, 51.6° (Epoch: 24 April)

Event Time Altitude Azimuth Distance (km) Brightness Sun altitude
Rises 18:32:57 0° 244° (WSW) 2,330 1.0 -4.9°
Reaches altitude 10° 18:35:02 10° 243° (WSW) 1,471 -0.1 -5.2°
Maximum altitude 18:38:19 76° 158° (SSE) 426 -3.8 -5.7°
Drops below altitude 10° 18:41:37 10° 72° (ENE) 1,475 -1.5 -6.3°
Enters shadow 18:42:30 - 71° (ENE) 1,833 -1.0 -6.4°
